,,PA_Meas_PMT16A,,PR_Meas_QMR101_102,,RH_Meas_QMH101,,SR_Meas_QMS101,,TA_Meas_QMH101,,GenWind,,GenWind,
time,status,PA,status,PR,status,RH,status,SR,status,TA,status,DirAvg,status,SpdAvg,
2014-12-17, 00:00:04,VALID,918.353,VALID,0,VALID,98.1667,VALID,0,VALID,19.4313,VALID,310,VALID,0,
2014-12-17, 00:01:04,VALID,918.367,VALID,0,VALID,98.1743,VALID,0,VALID,19.4103,VALID,309,VALID,0,
2014-12-17, 00:02:04,VALID,918.346,VALID,0,VALID,98.1896,VALID,0,VALID,19.3908,VALID,309,VALID,0,
2014-12-17, 00:03:04,VALID,918.314,VALID,0,VALID,98.182,VALID,0,VALID,19.4103,VALID,310,VALID,0,
2014-12-17, 00:04:04,VALID,918.33,VALID,0,VALID,98.1667,VALID,0,VALID,19.4103,VALID,309,VALID,0,
2014-12-17, 00:05:04,VALID,918.295,VALID,0,VALID,98.1286,VALID,0,VALID,19.4688,VALID,310,VALID,0,
2014-12-17, 00:06:04,VALID,918.31,VALID,0,VALID,98.1591,VALID,0,VALID,19.4493,VALID,257,VALID,0,
2014-12-17, 00:07:04,VALID,918.32,VALID,0,VALID,98.1591,VALID,0,VALID,19.4298,VALID,257,VALID,0,
2014-12-17, 00:08:04,VALID,918.279,VALID,0,VALID,98.1972,VALID,0,VALID,19.4298,VALID,257,VALID,0,
2014-12-17, 00:09:04,VALID,918.296,VALID,0,VALID,98.1667,VALID,0,VALID,19.4103,VALID,257,VALID,0,
2014-12-17, 00:10:04,VALID,918.294,VALID,0,VALID,98.1515,VALID,0.107441,VALID,19.4298,VALID,257,VALID,0,
2014-12-17, 00:11:04,VALID,918.279,VALID,0,VALID,98.1515,VALID,0,VALID,19.4493,VALID,257,VALID,0,
2014-12-17, 00:12:04,VALID,918.287,VALID,0,VALID,98.1591,VALID,0,VALID,19.4103,VALID,257,VALID,0,
2014-12-17, 00:13:04,VALID,918.308,VALID,0,VALID,98.1667,VALID,0,VALID,19.4493,VALID,299,VALID,0,
2014-12-17, 00:14:04,VALID,918.283,VALID,0.2,VALID,98.1743,VALID,0,VALID,19.5078,VALID,300,VALID,0,
2014-12-17, 00:15:04,VALID,918.287,VALID,0,VALID,98.1439,VALID,0,VALID,19.4688,VALID,300,VALID,0,
2014-12-17, 00:16:04,VALID,918.282,VALID,0,VALID,98.1667,VALID,0,VALID,19.4688,VALID,300,VALID,0,
2014-12-17, 00:17:04,VALID,918.231,VALID,0,VALID,98.1743,VALID,0,VALID,19.4883,VALID,300,VALID,0,
2014-12-17, 00:18:04,VALID,918.277,VALID,0,VALID,98.1439,VALID,0,VALID,19.4688,VALID,254,VALID,0,
2014-12-17, 00:19:04,VALID,918.239,VALID,0,VALID,98.1667,VALID,0,VALID,19.4298,VALID,254,VALID,0,
2014-12-17, 00:20:04,VALID,918.217,VALID,0,VALID,98.1667,VALID,0,VALID,19.4298,VALID,254,VALID,0,
2014-12-17, 00:21:04,VALID,918.226,VALID,0,VALID,98.182,VALID,0,VALID,19.3893,VALID,254,VALID,0,
2014-12-17, 00:22:04,VALID,918.167,VALID,0,VALID,98.1743,VALID,0,VALID,19.4103,VALID,254,VALID,0,
2014-12-17, 00:23:04,VALID,918.199,VALID,0,VALID,98.182,VALID,0,VALID,19.4103,VALID,254,VALID,0,
2014-12-17, 00:24:04,VALID,918.185,VALID,0,VALID,98.1743,VALID,0,VALID,19.3908,VALID,254,VALID,0,
2014-12-17, 00:25:04,VALID,918.152,VALID,0,VALID,98.1972,VALID,0,VALID,19.3713,VALID,254,VALID,0,
2014-12-17, 00:26:04,VALID,918.174,VALID,0,VALID,98.1896,VALID,0,VALID,19.3518,VALID,254,VALID,0,
2014-12-17, 00:27:04,VALID,918.14,VALID,0,VALID,98.182,VALID,0,VALID,19.3533,VALID,254,VALID,0,
2014-12-17, 00:28:04,VALID,918.093,VALID,0,VALID,98.1743,VALID,0,VALID,19.3323,VALID,254,VALID,0,
2014-12-17, 00:29:04,VALID,918.086,VALID,0,VALID,98.1972,VALID,0,VALID,19.3128,VALID,254,VALID,0,
2014-12-17, 00:30:04,VALID,918.075,VALID,0,VALID,98.1972,VALID,0,VALID,19.3128,VALID,254,VALID,0,
2014-12-17, 00:31:04,VALID,918.061,VALID,0,VALID,98.2048,VALID,0,VALID,19.3338,VALID,254,VALID,0,
2014-12-17, 00:32:05,VALID,918.08,VALID,0,VALID,98.182,VALID,0,VALID,19.2933,VALID,254,VALID,0,
2014-12-17, 00:33:05,VALID,918.054,VALID,0,VALID,98.182,VALID,0,VALID,19.2948,VALID,254,VALID,0,
2014-12-17, 00:34:05,VALID,918.036,VALID,0,VALID,98.2125,VALID,0,VALID,19.2738,VALID,254,VALID,0,
2014-12-17, 00:35:05,VALID,918.045,VALID,0,VALID,98.1972,VALID,0,VALID,19.2738,VALID,254,VALID,0,
2014-12-17, 00:36:05,VALID,918.034,VALID,0,VALID,98.1972,VALID,0,VALID,19.2738,VALID,254,VALID,0,
2014-12-17, 00:37:05,VALID,917.996,VALID,0,VALID,98.1896,VALID,0,VALID,19.3143,VALID,254,VALID,0,
2014-12-17, 00:38:05,VALID,918.006,VALID,0,VALID,98.1667,VALID,0,VALID,19.3533,VALID,254,VALID,0,
2014-12-17, 00:39:05,VALID,918,VALID,0,VALID,98.1667,VALID,0,VALID,19.3323,VALID,254,VALID,0,
2014-12-17, 00:40:05,VALID,917.954,VALID,0,VALID,98.182,VALID,0,VALID,19.3923,VALID,254,VALID,0,
2014-12-17, 00:41:05,VALID,917.96,VALID,0,VALID,98.182,VALID,0,VALID,19.3533,VALID,254,VALID,0,
2014-12-17, 00:42:05,VALID,917.923,VALID,0,VALID,98.1743,VALID,0,VALID,19.3533,VALID,254,VALID,0,
2014-12-17, 00:43:05,VALID,917.925,VALID,0,VALID,98.182,VALID,0,VALID,19.3128,VALID,254,VALID,0,
2014-12-17, 00:44:05,VALID,917.924,VALID,0,VALID,98.1972,VALID,0,VALID,19.3128,VALID,254,VALID,0,
2014-12-17, 00:45:05,VALID,917.928,VALID,0,VALID,98.1896,VALID,0,VALID,19.3143,VALID,254,VALID,0,
2014-12-17, 00:46:05,VALID,917.901,VALID,0,VALID,98.1896,VALID,0,VALID,19.2948,VALID,254,VALID,0,
2014-12-17, 00:47:05,VALID,917.878,VALID,0,VALID,98.1972,VALID,0,VALID,19.2738,VALID,254,VALID,0,
2014-12-17, 07:09:04,VALID,917.274,VALID,0,VALID,98.1362,VALID,50.6048,VALID,19.0998,VALID,140,VALID,0,
2014-12-17, 07:10:04,VALID,917.248,VALID,0,VALID,98.1591,VALID,51.6792,VALID,19.1388,VALID,140,VALID,0,
2014-12-17, 07:11:04,VALID,917.263,VALID,0,VALID,98.1667,VALID,52.861,VALID,19.1973,VALID,140,VALID,0,
2014-12-17, 07:12:04,VALID,917.278,VALID,0,VALID,98.1362,VALID,53.828,VALID,19.2558,VALID,140,VALID,0,
2014-12-17, 07:13:04,VALID,917.289,VALID,0,VALID,98.1362,VALID,54.5801,VALID,19.2753,VALID,140,VALID,0,
2014-12-17, 07:14:04,VALID,917.315,VALID,0,VALID,98.1134,VALID,55.0099,VALID,19.3533,VALID,140,VALID,0,
2014-12-17, 07:15:04,VALID,917.327,VALID,0,VALID,98.1286,VALID,56.1917,VALID,19.3923,VALID,140,VALID,0,
2014-12-17, 07:16:04,VALID,917.35,VALID,0,VALID,98.1057,VALID,57.1587,VALID,19.3338,VALID,140,VALID,0,
2014-12-17, 07:17:04,VALID,917.364,VALID,0,VALID,98.1362,VALID,58.2331,VALID,19.3728,VALID,140,VALID,0,
2014-12-17, 07:18:04,VALID,917.405,VALID,0,VALID,98.1057,VALID,59.0926,VALID,19.4118,VALID,140,VALID,0,
2014-12-17, 07:19:04,VALID,917.429,VALID,0,VALID,98.1286,VALID,59.6298,VALID,19.3713,VALID,140,VALID,0,
2014-12-17, 07:20:04,VALID,917.449,VALID,0,VALID,98.121,VALID,60.2745,VALID,19.3713,VALID,140,VALID,0,
2014-12-17, 07:21:04,VALID,917.434,VALID,0,VALID,98.121,VALID,61.0266,VALID,19.3728,VALID,140,VALID,0,
2014-12-17, 07:22:04,VALID,917.478,VALID,0,VALID,98.1286,VALID,61.8861,VALID,19.3908,VALID,140,VALID,0,
2014-12-17, 07:23:04,VALID,917.518,VALID,0,VALID,98.1286,VALID,62.7456,VALID,19.3518,VALID,104,VALID,0,
2014-12-17, 07:24:04,VALID,917.531,VALID,0,VALID,98.1134,VALID,63.7126,VALID,19.3908,VALID,104,VALID,0,
2014-12-17, 07:25:04,VALID,917.592,VALID,0,VALID,98.0981,VALID,64.8945,VALID,19.4298,VALID,104,VALID,0,
2014-12-17, 07:26:04,VALID,917.598,VALID,0,VALID,98.1057,VALID,65.8614,VALID,19.4493,VALID,158,VALID,0,
2014-12-17, 07:27:04,VALID,917.607,VALID,0,VALID,98.0981,VALID,66.2912,VALID,19.4493,VALID,158,VALID,0,
2014-12-17, 07:28:04,VALID,917.61,VALID,0,VALID,98.0981,VALID,67.3656,VALID,19.4688,VALID,158,VALID,0,
2014-12-17, 07:29:04,VALID,917.617,VALID,0,VALID,98.0905,VALID,68.3326,VALID,19.5078,VALID,158,VALID,0,
2014-12-17, 07:30:04,VALID,917.654,VALID,0,VALID,98.0981,VALID,70.0516,VALID,19.5678,VALID,158,VALID,0,
2014-12-17, 07:31:04,VALID,917.654,VALID,0,VALID,98.0829,VALID,71.6632,VALID,19.5678,VALID,158,VALID,0,
2014-12-17, 07:32:04,VALID,917.716,VALID,0,VALID,98.0905,VALID,71.5558,VALID,19.5678,VALID,158,VALID,0,
2014-12-17, 07:33:04,VALID,917.72,VALID,0,VALID,98.0981,VALID,72.7377,VALID,19.4883,VALID,158,VALID,0,
2014-12-17, 07:34:04,VALID,917.746,VALID,0,VALID,98.121,VALID,74.5642,VALID,19.4493,VALID,158,VALID,0,
2014-12-17, 07:35:04,VALID,917.757,VALID,0,VALID,98.0981,VALID,76.713,VALID,19.4298,VALID,158,VALID,0,
2014-12-17, 07:36:04,VALID,917.783,VALID,0,VALID,98.0829,VALID,77.7874,VALID,19.4688,VALID,158,VALID,0,
2014-12-17, 07:37:04,VALID,917.821,VALID,0,VALID,98.1134,VALID,78.8618,VALID,19.4703,VALID,107,VALID,0,
2014-12-17, 07:38:04,VALID,917.848,VALID,0,VALID,98.1057,VALID,80.5809,VALID,19.4688,VALID,107,VALID,0,
2014-12-17, 07:39:04,VALID,917.839,VALID,0,VALID,98.0981,VALID,82.9446,VALID,19.4688,VALID,108,VALID,0,
2014-12-17, 07:40:04,VALID,917.852,VALID,0,VALID,98.1286,VALID,85.6306,VALID,19.3908,VALID,158,VALID,0,
2014-12-17, 07:41:04,VALID,917.859,VALID,0,VALID,98.1591,VALID,88.8538,VALID,19.2933,VALID,158,VALID,0,
2014-12-17, 07:42:04,VALID,917.872,VALID,0,VALID,98.1439,VALID,92.3994,VALID,19.2738,VALID,158,VALID,0,
2014-12-17, 07:43:04,VALID,917.881,VALID,0,VALID,98.1362,VALID,95.8375,VALID,19.3128,VALID,158,VALID,0,
2014-12-17, 07:44:04,VALID,917.895,VALID,0,VALID,98.1362,VALID,98.9533,VALID,19.3713,VALID,158,VALID,0,
2014-12-17, 07:45:04,VALID,917.91,VALID,0,VALID,98.1286,VALID,101.854,VALID,19.3908,VALID,158,VALID,0,
2014-12-17, 07:46:04,VALID,917.86,VALID,0,VALID,98.1057,VALID,104.755,VALID,19.4493,VALID,158,VALID,0,
2014-12-17, 07:47:04,VALID,917.886,VALID,0,VALID,98.1057,VALID,107.441,VALID,19.4883,VALID,158,VALID,0,
2014-12-17, 07:48:04,VALID,917.914,VALID,0,VALID,98.1134,VALID,110.02,VALID,19.5273,VALID,158,VALID,0,
2014-12-17, 07:49:04,VALID,917.922,VALID,0,VALID,98.0829,VALID,112.706,VALID,19.5468,VALID,158,VALID,0,
2014-12-17, 07:50:04,VALID,917.913,VALID,0,VALID,98.1057,VALID,115.177,VALID,19.5078,VALID,158,VALID,0,
2014-12-17, 07:51:04,VALID,917.929,VALID,0,VALID,98.1134,VALID,117.648,VALID,19.5078,VALID,158,VALID,0,
2014-12-17, 07:52:04,VALID,917.92,VALID,0,VALID,98.0829,VALID,119.26,VALID,19.5078,VALID,158,VALID,0,
2014-12-17, 07:53:04,VALID,917.909,VALID,0,VALID,98.1286,VALID,121.301,VALID,19.4883,VALID,158,VALID,0,
2014-12-17, 07:54:04,VALID,917.915,VALID,0,VALID,98.1286,VALID,123.45,VALID,19.4868,VALID,158,VALID,0,
2014-12-17, 07:55:04,VALID,917.924,VALID,0,VALID,98.0981,VALID,126.243,VALID,19.5273,VALID,158,VALID,0,
2014-12-17, 07:56:04,VALID,917.914,VALID,0,VALID,98.1057,VALID,127.855,VALID,19.5078,VALID,23,VALID,0,
2014-12-17, 07:57:04,VALID,917.934,VALID,0,VALID,98.0981,VALID,129.467,VALID,19.5273,VALID,23,VALID,0,
2014-12-17, 07:58:04,VALID,917.918,VALID,0,VALID,98.0752,VALID,131.293,VALID,19.6248,VALID,23,VALID,0,
2014-12-17, 07:59:04,VALID,917.932,VALID,0,VALID,98.1057,VALID,134.624,VALID,19.5858,VALID,23,VALID,0,
2014-12-17, 08:00:04,VALID,917.957,VALID,0,VALID,98.0981,VALID,135.698,VALID,19.6053,VALID,24,VALID,0,
2014-12-17, 08:01:04,VALID,917.96,VALID,0,VALID,98.0981,VALID,137.095,VALID,19.6443,VALID,23,VALID,0,
2014-12-17, 08:02:04,VALID,917.951,VALID,0,VALID,98.0524,VALID,139.996,VALID,19.7028,VALID,23,VALID,0,
2014-12-17, 08:03:04,VALID,917.966,VALID,0,VALID,98.0676,VALID,142.682,VALID,19.7223,VALID,23,VALID,0,
2014-12-17, 08:04:04,VALID,917.995,VALID,0,VALID,98.0676,VALID,145.153,VALID,19.7418,VALID,23,VALID,0,
2014-12-17, 08:05:04,VALID,917.997,VALID,0,VALID,98.0752,VALID,146.872,VALID,19.7223,VALID,24,VALID,0,
2014-12-17, 08:06:04,VALID,918.048,VALID,0,VALID,98.0524,VALID,148.376,VALID,19.7418,VALID,24,VALID,0,
2014-12-17, 08:07:04,VALID,918.046,VALID,0,VALID,98.0219,VALID,148.913,VALID,19.8588,VALID,24,VALID,0,
2014-12-17, 08:08:04,VALID,918.054,VALID,0,VALID,98.0143,VALID,147.732,VALID,19.9173,VALID,24,VALID,0,
2014-12-17, 08:09:04,VALID,918.081,VALID,0,VALID,98.0219,VALID,146.335,VALID,19.9563,VALID,24,VALID,0,
2014-12-17, 08:10:04,VALID,918.092,VALID,0,VALID,98.0219,VALID,145.153,VALID,19.9548,VALID,23,VALID,0,
2014-12-17, 08:11:04,VALID,918.111,VALID,0,VALID,98.0295,VALID,144.723,VALID,19.9158,VALID,23,VALID,0,
2014-12-17, 08:12:04,VALID,918.11,VALID,0,VALID,98.0066,VALID,145.368,VALID,19.9758,VALID,23,VALID,0,
2014-12-17, 08:13:04,VALID,918.135,VALID,0,VALID,98.0143,VALID,146.979,VALID,19.9758,VALID,23,VALID,0,
2014-12-17, 08:14:04,VALID,918.142,VALID,0,VALID,98.0371,VALID,149.988,VALID,19.8963,VALID,23,VALID,0,
2014-12-17, 08:15:04,VALID,918.169,VALID,0,VALID,98.0371,VALID,151.599,VALID,19.9158,VALID,350,VALID,0,
2014-12-17, 08:16:04,VALID,918.193,VALID,0,VALID,98.0219,VALID,152.459,VALID,19.9158,VALID,319,VALID,0,
2014-12-17, 08:17:04,VALID,918.17,VALID,0,VALID,98.0295,VALID,152.352,VALID,19.9563,VALID,309,VALID,0,
2014-12-17, 08:18:04,VALID,918.197,VALID,0,VALID,98.0295,VALID,150.955,VALID,19.9968,VALID,333,VALID,0,
2014-12-17, 08:19:04,VALID,918.208,VALID,0,VALID,98.0066,VALID,149.236,VALID,20.0163,INVALID,360,VALID,0,
2014-12-17, 08:20:04,VALID,918.222,VALID,0,VALID,98.0143,VALID,147.302,VALID,20.0553,VALID,30,VALID,0.0289063,
2014-12-17, 08:21:04,VALID,918.215,VALID,0,VALID,97.9914,VALID,146.013,VALID,20.1123,VALID,14,VALID,0,
2014-12-17, 08:22:04,VALID,918.236,VALID,0,VALID,97.9685,VALID,145.368,VALID,20.1318,VALID,7,VALID,0.0015625,
2014-12-17, 08:23:04,VALID,918.261,VALID,0,VALID,97.9914,VALID,145.583,VALID,20.1303,VALID,353,VALID,0.0695312,
2014-12-17, 08:24:05,VALID,918.28,VALID,0,VALID,98.0219,VALID,146.227,VALID,20.0913,VALID,343,VALID,1.20195,
2014-12-17, 08:25:04,VALID,918.285,VALID,0,VALID,98.0371,VALID,146.657,VALID,20.0133,VALID,335,VALID,1.17422,
2014-12-17, 08:26:04,VALID,918.265,VALID,0,VALID,98.0295,VALID,146.55,VALID,20.0328,VALID,354,VALID,1.20977,
2014-12-17, 08:27:04,VALID,918.297,VALID,0,VALID,98.0219,VALID,146.335,VALID,20.0718,VALID,342,VALID,1.00547,
2014-12-17, 08:28:04,VALID,918.299,VALID,0,VALID,97.9914,VALID,145.26,VALID,20.1108,VALID,349,VALID,0.539063,
2014-12-17, 08:29:04,VALID,918.308,VALID,0,VALID,97.999,VALID,143.541,VALID,20.1303,VALID,326,VALID,0.401172,
2014-12-17, 08:30:04,VALID,918.327,VALID,0,VALID,97.999,VALID,138.814,VALID,20.1108,VALID,292,VALID,0.180859,
2014-12-17, 08:31:04,VALID,918.318,VALID,0,VALID,98.0143,VALID,138.384,VALID,20.0718,VALID,292,VALID,0.405859,
2014-12-17, 08:32:04,VALID,918.352,VALID,0,VALID,98.0143,VALID,133.657,VALID,20.1108,VALID,313,VALID,0.753906,
2014-12-17, 08:33:04,VALID,918.334,VALID,0,VALID,98.0066,VALID,139.351,VALID,20.1108,VALID,355,VALID,1.03594,
2014-12-17, 08:34:04,VALID,918.325,VALID,0,VALID,97.999,VALID,138.814,VALID,20.1108,VALID,359,VALID,1.32695,
2014-12-17, 08:35:04,VALID,918.334,VALID,0,VALID,98.0219,VALID,138.599,VALID,20.0913,VALID,10,VALID,0.915234,
2014-12-17, 08:36:04,VALID,918.349,VALID,0,VALID,98.0143,VALID,138.814,VALID,20.1108,VALID,320,VALID,0.650391,
2014-12-17, 08:37:04,VALID,918.336,VALID,0,VALID,98.0219,VALID,136.773,VALID,20.0703,VALID,8,VALID,0.933984,
2014-12-17, 08:38:04,VALID,918.344,VALID,0,VALID,98.0143,VALID,140.64,VALID,20.1123,VALID,297,VALID,0.485547,
2014-12-17, 08:39:04,VALID,918.342,VALID,0,VALID,98.0371,VALID,140.963,VALID,20.0733,VALID,324,VALID,0.641797,
2014-12-17, 08:40:04,VALID,918.353,VALID,0,VALID,98.0219,VALID,143.219,VALID,20.0733,VALID,356,VALID,0.780469,
2014-12-17, 08:41:04,VALID,918.367,VALID,0,VALID,98.0143,VALID,144.293,VALID,20.1318,VALID,341,VALID,1.08242,
2014-12-17, 08:42:04,VALID,918.367,VALID,0,VALID,97.999,VALID,144.401,VALID,20.1903,VALID,351,VALID,1.1707,
2014-12-17, 08:43:04,VALID,918.376,VALID,0,VALID,98.0219,VALID,144.293,VALID,20.2098,VALID,339,VALID,0.574609,
2014-12-17, 08:44:04,VALID,918.44,VALID,0,VALID,98.0066,VALID,143.971,VALID,20.1318,VALID,273,VALID,0.949609,
2014-12-17, 08:45:04,VALID,918.451,VALID,0,VALID,98.0143,VALID,143.541,VALID,20.1724,VALID,271,VALID,0,
2014-12-17, 08:46:04,VALID,918.457,VALID,0,VALID,98.0143,VALID,143.112,VALID,20.1498,VALID,271,VALID,0,
2014-12-17, 08:47:04,VALID,918.493,VALID,0,VALID,97.999,VALID,143.756,VALID,20.1693,VALID,271,VALID,0,
2014-12-17, 08:48:04,VALID,918.514,VALID,0,VALID,98.0295,VALID,144.401,VALID,20.1303,VALID,318,VALID,0,
2014-12-17, 08:49:04,VALID,918.499,VALID,0,VALID,98.0448,VALID,145.475,VALID,20.0913,VALID,345,VALID,0,
2014-12-17, 08:50:04,VALID,918.514,VALID,0,VALID,98.0295,VALID,146.55,VALID,20.1303,VALID,360,VALID,0,
2014-12-17, 08:51:04,VALID,918.551,VALID,0,VALID,98.0295,VALID,147.732,VALID,20.0898,VALID,319,VALID,0,
2014-12-17, 08:52:04,VALID,918.577,VALID,0,VALID,98.0219,VALID,148.699,VALID,20.1498,VALID,319,VALID,0,
2014-12-17, 08:53:04,VALID,918.567,VALID,0,VALID,98.0295,VALID,149.021,VALID,20.1318,VALID,270,VALID,0,
2014-12-17, 08:55:04,VALID,918.606,VALID,0,VALID,98.0219,VALID,150.31,VALID,20.1693,VALID,270,VALID,0,
2014-12-17, 08:56:04,VALID,918.612,VALID,0,VALID,98.0066,VALID,150.955,VALID,20.2489,VALID,270,VALID,0,
2014-12-17, 08:57:04,VALID,918.624,VALID,0,VALID,97.9838,VALID,152.566,VALID,20.2684,VALID,270,VALID,0,
2014-12-17, 08:58:04,VALID,918.613,VALID,0,VALID,97.9838,VALID,154.5,VALID,20.2879,VALID,272,VALID,0,
2014-12-17, 08:59:04,VALID,918.612,VALID,0,VALID,97.9761,VALID,156.757,VALID,20.3269,VALID,272,VALID,0,
2014-12-17, 09:00:04,VALID,918.612,VALID,0,VALID,97.9838,VALID,159.443,VALID,20.3854,VALID,299,VALID,0,
2014-12-17, 09:01:04,VALID,918.615,VALID,0,VALID,97.9685,VALID,162.021,VALID,20.3854,VALID,299,VALID,0,
2014-12-17, 09:02:04,VALID,918.588,VALID,0,VALID,97.9838,VALID,164.278,VALID,20.3659,VALID,298,VALID,0,
2014-12-17, 09:03:04,VALID,918.633,VALID,0,VALID,97.9838,VALID,166.104,VALID,20.3464,VALID,336,VALID,0,
2014-12-17, 09:04:04,VALID,918.641,VALID,0,VALID,98.0066,VALID,167.823,VALID,20.3269,VALID,338,VALID,0,
2014-12-17, 09:05:04,VALID,918.616,VALID,0,VALID,97.9914,VALID,169.65,VALID,20.3253,VALID,339,VALID,0,
2014-12-17, 09:06:04,VALID,918.599,VALID,0,VALID,97.9914,VALID,171.798,VALID,20.3659,VALID,338,VALID,0,
2014-12-17, 09:07:04,VALID,918.626,VALID,0,VALID,98.0219,VALID,174.27,VALID,20.2668,INVALID,360,VALID,0,
2014-12-17, 09:08:04,VALID,918.612,VALID,0,VALID,98.0143,VALID,177.063,VALID,20.2863,VALID,339,VALID,0,
2014-12-17, 09:09:04,VALID,918.639,VALID,0,VALID,98.0143,VALID,180.501,VALID,20.3464,VALID,339,VALID,0,
2014-12-17, 09:10:04,VALID,918.615,VALID,0,VALID,98.0143,VALID,184.799,VALID,20.3269,VALID,320,VALID,0,
2014-12-17, 09:11:04,VALID,918.627,VALID,0,VALID,98.0219,VALID,189.634,VALID,20.3253,VALID,320,VALID,0,
2014-12-17, 09:12:04,VALID,918.625,VALID,0,VALID,97.999,VALID,195.543,VALID,20.4049,VALID,316,VALID,0,
2014-12-17, 09:13:04,VALID,918.584,VALID,0,VALID,97.9685,VALID,201.774,VALID,20.4228,VALID,303,VALID,0,
2014-12-17, 09:14:04,VALID,918.601,VALID,0,VALID,97.9685,VALID,207.791,VALID,20.4423,VALID,309,VALID,0,
2014-12-17, 09:15:04,VALID,918.569,VALID,0,VALID,97.9914,VALID,212.841,VALID,20.5219,VALID,321,VALID,0,
2014-12-17, 09:16:04,VALID,918.593,VALID,0,VALID,97.9228,VALID,217.031,VALID,20.639,VALID,339,VALID,0,
2014-12-17, 09:17:04,VALID,918.546,VALID,0,VALID,97.938,VALID,219.717,VALID,20.6764,VALID,346,VALID,0,
2014-12-17, 09:18:04,VALID,918.571,VALID,0,VALID,97.9456,VALID,221.651,VALID,20.678,VALID,340,VALID,0,
2014-12-17, 09:19:04,VALID,918.541,VALID,0,VALID,97.9761,VALID,223.263,VALID,20.5594,VALID,322,VALID,0,
2014-12-17, 09:20:04,VALID,918.554,VALID,0,VALID,97.9685,VALID,224.445,VALID,20.5789,VALID,321,VALID,0,
2014-12-17, 09:21:04,VALID,918.523,VALID,0,VALID,98.0066,VALID,225.626,VALID,20.5204,VALID,278,VALID,0,
2014-12-17, 09:22:04,VALID,918.553,VALID,0,VALID,98.0066,VALID,226.808,VALID,20.5399,VALID,277,VALID,0,
2014-12-17, 09:23:04,VALID,918.559,VALID,0,VALID,97.9685,VALID,227.56,VALID,20.6764,VALID,1,VALID,0,
2014-12-17, 09:24:04,VALID,918.56,VALID,0,VALID,97.9228,VALID,227.99,VALID,20.8324,VALID,347,VALID,0,
2014-12-17, 09:25:04,VALID,918.56,VALID,0,VALID,97.9456,VALID,228.527,VALID,20.7349,VALID,288,VALID,0,
2014-12-17, 09:26:04,VALID,918.578,VALID,0,VALID,97.9456,VALID,228.312,VALID,20.7349,VALID,254,VALID,0,
2014-12-17, 09:27:04,VALID,918.603,VALID,0,VALID,97.938,VALID,228.42,VALID,20.93,VALID,323,VALID,0,
2014-12-17, 09:28:04,VALID,918.61,VALID,0,VALID,97.8847,VALID,228.098,VALID,21.008,VALID,323,VALID,0,
2014-12-17, 09:29:04,VALID,918.589,VALID,0,VALID,97.9304,VALID,227.668,VALID,20.9284,VALID,10,VALID,0,
2014-12-17, 09:30:04,VALID,918.598,VALID,0,VALID,97.9304,VALID,227.56,VALID,20.9674,VALID,10,VALID,0,
2014-12-17, 09:31:04,VALID,918.637,VALID,0,VALID,97.9304,VALID,227.453,VALID,21.0064,VALID,10,VALID,0,
2014-12-17, 09:32:04,VALID,918.619,VALID,0,VALID,97.9838,VALID,227.883,VALID,20.8699,VALID,308,VALID,0,
2014-12-17, 09:33:04,VALID,918.607,VALID,0,VALID,97.9533,VALID,228.742,VALID,20.9479,VALID,30,VALID,0,
2014-12-17, 09:34:04,VALID,918.639,VALID,0,VALID,97.9152,VALID,229.709,VALID,21.0454,VALID,30,VALID,0,
2014-12-17, 09:35:04,VALID,918.625,VALID,0,VALID,97.9304,VALID,230.569,VALID,21.1039,VALID,27,VALID,0,
2014-12-17, 09:36:04,VALID,918.638,VALID,0,VALID,97.9533,VALID,231.321,VALID,21.0454,VALID,312,VALID,0,
2014-12-17, 09:37:04,VALID,918.634,VALID,0,VALID,97.9228,VALID,230.891,VALID,21.1234,VALID,18,VALID,0,
2014-12-17, 09:38:04,VALID,918.676,VALID,0,VALID,97.8923,VALID,229.602,VALID,21.2015,VALID,24,VALID,0,
2014-12-17, 09:39:04,VALID,918.664,VALID,0,VALID,97.9075,VALID,227.99,VALID,21.1819,VALID,21,VALID,0,
2014-12-17, 09:40:04,VALID,918.679,VALID,0,VALID,97.9456,VALID,225.412,VALID,21.1234,VALID,4,VALID,0,
2014-12-17, 09:41:04,VALID,918.705,VALID,0,VALID,97.9533,VALID,222.94,VALID,21.1429,VALID,322,VALID,0,
2014-12-17, 09:42:04,VALID,918.689,VALID,0,VALID,97.9685,VALID,219.395,VALID,21.1039,VALID,289,VALID,0,
2014-12-17, 09:43:04,VALID,918.704,VALID,0,VALID,98.0219,VALID,217.353,VALID,21.0259,VALID,9,VALID,0,
2014-12-17, 09:44:04,VALID,918.682,VALID,0,VALID,98.0448,VALID,216.064,VALID,20.9674,VALID,36,VALID,0,
2014-12-17, 09:45:04,VALID,918.702,VALID,0,VALID,97.9914,VALID,215.42,VALID,21.0259,VALID,10,VALID,0,
2014-12-17, 09:46:04,VALID,918.71,VALID,0,VALID,98.0143,VALID,215.849,VALID,21.0243,VALID,350,VALID,0,
2014-12-17, 09:47:04,VALID,918.707,VALID,0,VALID,98.0143,VALID,217.998,VALID,21.1039,VALID,347,VALID,0,
2014-12-17, 09:48:04,VALID,918.7,VALID,0,VALID,97.9685,VALID,221.221,VALID,21.1413,VALID,347,VALID,0,
2014-12-17, 09:49:04,VALID,918.688,VALID,0,VALID,97.9838,VALID,225.197,VALID,21.1218,VALID,322,VALID,0,
2014-12-17, 09:50:04,VALID,918.698,VALID,0,VALID,97.9761,VALID,229.602,VALID,21.1023,VALID,297,VALID,0,
2014-12-17, 09:51:04,VALID,918.691,VALID,0,VALID,97.9914,VALID,234.007,VALID,21.1803,VALID,298,VALID,0,
2014-12-17, 09:52:04,VALID,918.719,VALID,0,VALID,97.9456,VALID,238.09,VALID,21.2779,VALID,336,VALID,0,
2014-12-17, 09:53:04,VALID,918.723,VALID,0,VALID,97.938,VALID,242.172,VALID,21.3169,VALID,335,VALID,0,
2014-12-17, 09:54:04,VALID,918.719,VALID,0,VALID,98.0066,VALID,245.503,VALID,21.2405,VALID,348,VALID,0,
2014-12-17, 09:55:04,VALID,918.688,VALID,0,VALID,97.9914,VALID,248.189,VALID,21.26,VALID,348,VALID,0,
2014-12-17, 09:56:04,VALID,918.732,VALID,0,VALID,97.9456,VALID,250.768,VALID,21.338,VALID,349,VALID,0,
2014-12-17, 09:57:04,VALID,918.714,VALID,0,VALID,98.0143,VALID,253.991,VALID,21.26,VALID,306,VALID,0,
2014-12-17, 09:58:04,VALID,918.745,VALID,0,VALID,98.0143,VALID,257.107,VALID,21.221,VALID,286,VALID,0,
2014-12-17, 09:59:04,VALID,918.706,VALID,0,VALID,97.9609,VALID,260.76,VALID,21.299,VALID,336,VALID,0,
2014-12-17, 10:00:04,VALID,918.712,VALID,0,VALID,97.9761,VALID,265.165,VALID,21.26,VALID,322,VALID,0,
2014-12-17, 10:01:04,VALID,918.706,VALID,0,VALID,97.9456,VALID,270.107,VALID,21.299,VALID,338,VALID,0,
2014-12-17, 10:02:04,VALID,918.681,VALID,0,VALID,97.9304,VALID,276.554,VALID,21.338,VALID,295,VALID,0,
2014-12-17, 10:03:04,VALID,918.727,VALID,0,VALID,97.9456,VALID,282.785,VALID,21.3575,VALID,278,VALID,0,
2014-12-17, 10:04:04,VALID,918.709,VALID,0,VALID,97.9304,VALID,289.876,VALID,21.377,VALID,269,VALID,0,
2014-12-17, 10:05:04,VALID,918.683,VALID,0,VALID,97.9456,VALID,296,VALID,21.299,VALID,256,VALID,0,
2014-12-17, 10:06:04,VALID,918.66,VALID,0,VALID,97.8999,VALID,299.653,VALID,21.3575,VALID,256,VALID,0,
2014-12-17, 10:07:04,VALID,918.67,VALID,0,VALID,97.8923,VALID,300.62,VALID,21.4144,VALID,306,VALID,0,
2014-12-17, 10:08:04,VALID,918.679,VALID,0,VALID,97.8847,VALID,298.686,VALID,21.4355,VALID,315,VALID,0,
2014-12-17, 10:09:04,VALID,918.714,VALID,0,VALID,97.8313,VALID,297.075,VALID,21.5526,VALID,325,VALID,0,
2014-12-17, 10:10:04,VALID,918.72,VALID,0,VALID,97.8313,VALID,295.893,VALID,21.6485,VALID,357,VALID,0,